This demonstration page uses our WeatherBlox Daily Observations layout. Learn more.

Left ArrowRight Arrow

44.8408, -93.29828

Hourly Observations for December 26, 2019

Temp ( °F °C ) Dew Point ( °F °C ) Humidity (%) Winds ( mph kmh ) Pressure ( in mb ) Visibility ( mi km ) Precip ( " mm )
12:02 am 00:02 Mostly Cloudy with Freezing Fog 30 -1.1 30 -1.1 100 100 Calm 29.78 1008 0 0 0.00 0.00
12:11 am 00:11 Mostly Cloudy with Freezing Fog 30 -1.1 30 -1.1 100 100 Calm 29.78 1008 0 0 0.00 0.00
12:53 am 00:53 Mostly Cloudy with Freezing Fog 30 -1.1 30 -1.1 100 100 Calm 29.75 1008 0 0 0.00 0.00
1:53 am 01:53 Mostly Cloudy with Freezing Fog 30 -1.1 30 -1.1 100 100 WSW 5 7 29.77 1008 0 0 0.00 0.00
2:53 am 02:53 Cloudy with Mist and Fog 30 -1.1 30 -1.1 100 100 WSW 5 7 29.78 1009 0 0 0.00 0.00
3:18 am 03:18 Cloudy with Mist and Fog 30 -1.1 30 -1.1 100 100 WSW 6 9 29.81 1009 1 2 0.00 0.00
3:53 am 03:53 Cloudy with Mist and Fog 30 -1.1 30 -1.1 100 100 WSW 8 13 29.80 1009 1 2 0.00 0.00
4:06 am 04:06 Cloudy with Mist and Fog 30 -1 N/A N/A WSW 8 13 29.83 1010 2 3 0.00 0.00
4:44 am 04:44 Cloudy with Mist and Fog 28 -2 N/A N/A W 8 13 29.83 1010 3 4 0.00 0.00
4:53 am 04:53 Cloudy with Mist and Fog 29 -1.7 29 -1.7 100 100 W 9 15 29.80 1009 3 5 0.00 0.00
5:28 am 05:28 Cloudy with Mist and Fog 29 -1.7 28 -2.2 96 96 W 10 17 29.84 1011 3 4 0.00 0.00
5:43 am 05:43 Cloudy with Mist and Fog 29 -1.7 28 -2.2 96 96 W 10 17 29.85 1011 3 5 0.00 0.00
5:53 am 05:53 Cloudy with Mist and Fog 29 -1.7 28 -2.2 96 96 W 10 17 29.83 1010 4 6 0.00 0.00
6:15 am 06:15 Cloudy with Mist and Fog 30 -1.1 30 -1.1 100 100 WSW 9 15 29.86 1011 6 10 0.00 0.00
6:53 am 06:53 Cloudy 30 -1.1 30 -1.1 100 100 W 12 19 29.85 1011 9 14 0.00 0.00
7:53 am 07:53 Cloudy 33 0.6 32 0 96 96 WSW 9 15 29.88 1012 9 14 0.00 0.00
8:34 am 08:34 Cloudy 32 0 31 -0.6 96 96 W 10 17 29.93 1013 9 14 0.00 0.00
8:53 am 08:53 Cloudy 32 0 30 -1.1 92 92 W 13 20 29.92 1013 9 14 0.00 0.00
9:45 am 09:45 Cloudy 32 0 29 -1.7 88 88 WSW 14 22 29.97 1015 10 16 0.00 0.00
9:53 am 09:53 Cloudy 32 0 29 -1.7 88 88 W 13 20 29.95 1014 10 16 0.00 0.00
10:32 am 10:32 Cloudy 33 0.6 27 -2.8 78 78 W 10 17 29.97 1015 10 16 0.00 0.00
10:53 am 10:53 Cloudy 33 0.6 27 -2.8 78 78 W 14 22 29.95 1014 10 16 0.00 0.00
11:44 am 11:44 Cloudy 33 0.6 26 -3.3 75 75 W 14 22 29.98 1015 10 16 0.00 0.00
11:53 am 11:53 Cloudy 33 0.6 26 -3.3 75 75 W 12 19 29.97 1015 10 16 0.00 0.00
12:53 pm 12:53 Cloudy 32 0 25 -3.9 75 75 W 13 20 29.96 1015 10 16 0.00 0.00
1:16 pm 13:16 Cloudy 32 0 25 -3.9 75 75 W 10 17 30.00 1016 10 16 0.00 0.00
1:53 pm 13:53 Cloudy 31 -0.6 23 -5 72 72 W 13 20 29.99 1016 10 16 0.00 0.00
2:53 pm 14:53 Cloudy 31 -0.6 23 -5 72 72 W 10 17 30.01 1016 10 16 0.00 0.00
3:53 pm 15:53 Cloudy 30 -1.1 23 -5 75 75 W 10 17 30.01 1016 10 16 0.00 0.00
4:23 pm 16:23 Cloudy 29 -1.7 23 -5 78 78 WSW 8 13 30.05 1018 10 16 0.00 0.00
4:53 pm 16:53 Cloudy 29 -1.7 22 -5.6 75 75 W 10 17 30.05 1018 10 16 0.00 0.00
5:53 pm 17:53 Cloudy 28 -2.2 21 -6.1 75 75 W 13 20 30.08 1019 10 16 0.00 0.00
6:53 pm 18:53 Cloudy 28 -2.2 21 -6.1 75 75 W 10 17 30.10 1019 10 16 0.00 0.00
7:53 pm 19:53 Cloudy 27 -2.8 22 -5.6 81 81 W 10 17 30.10 1019 10 16 0.00 0.00
8:53 pm 20:53 Cloudy 27 -2.8 22 -5.6 81 81 W 8 13 30.10 1019 10 16 0.00 0.00
9:53 pm 21:53 Cloudy 27 -2.8 22 -5.6 81 81 W 9 15 30.11 1020 10 16 0.00 0.00
10:24 pm 22:24 Cloudy 28 -2.2 21 -6.1 75 75 W 8 13 30.13 1020 10 16 0.00 0.00
10:53 pm 22:53 Cloudy 28 -2.2 22 -5.6 78 78 W 9 15 30.12 1020 10 16 0.00 0.00
11:53 pm 23:53 Cloudy 27 -2.8 20 -6.7 75 75 W 14 22 30.14 1021 10 16 0.00 0.00

Powered by AerisWeather